KOMPSAT-3A

Last updated on Wed Sep 17 2025 00:02:31 GMT+0000 (Coordinated Universal Time)

1 40536U 15014A 25259.64475885 .00016156 00000+0 41234-3 0 9994 2 40536 97.6660 229.5387 0006350 96.6956 263.5011 15.39566065579538
UTC large
Height (km)
Speed (km/s)
/
Latitude / Longitude
Inclination (degrees)
Orbital Period (minutes)
Azimuth
Elevation
Range (km)
Doppler Factor

Next 0 passes for location: London (51.5072 / 0.1276)

Sorry there are no passes over London.